Zurück zum Katalog

STARLINK-4126

AktivKommunikationVLEO
NORAD 52867·PAYLOAD·🇺🇸 United States

Gestartet Jun 17, 2022 von Cape Canaveral Space Force Station

Loading…

Nächste Überflüge (nächste 24 Stunden)

TLE

AktuellSource: CelesTrak SupGP

Epoche: Sep 15, 2026, 01:30 UTC

1 52867C 22062AP  26258.06298611 -.00026574  00000+0 -78510-3 0  2583
2 52867  53.1572 239.0040 0001429  86.9589 269.7779 15.34405590    16

Verfolge STARLINK-4126 in Echtzeit mit AllMySat

Download on the App Store